LRFT Weather Reports


Display with metric or nautical units.
time (UTC)temp
F
wind
direction
speed
MPH
gust
MPH
rain 1hr
in
rain 24hr
in
rain mn
in
humidity
%
barometer
mb
20260508110359 73 140 7.0 0.0 0.00 0.00 0.00 61 1016.0
20260508104858 72 140 7.0 0.0 0.00 0.00 0.00 61 1016.0
20260508103422 0 0.0 0.0 0.00 0.00 0.00
20260508101900 72 140 7.0 0.0 0.00 0.00 0.00 61 1016.0
20260508100400 72 140 7.0 0.0 0.00 0.00 0.00 61 1016.0
20260508094900 68 120 9.0 0.0 0.00 0.00 0.00 69 1016.0
20260508093400 68 120 9.0 0.0 0.00 0.00 0.00 69 1016.0
20260508091859 68 120 9.0 0.0 0.00 0.00 0.00 69 1016.0
20260508090359 68 120 9.0 0.0 0.00 0.00 0.00 69 1016.0
20260508084859 61 130 7.0 0.0 0.00 0.00 0.00 77 1017.0
20260508083359 61 130 7.0 0.0 0.00 0.00 0.00 77 1017.0
20260508081900 61 130 7.0 0.0 0.00 0.00 0.00 77 1017.0
20260508080359 61 130 7.0 0.0 0.00 0.00 0.00 77 1017.0
20260508074856 59 150 9.0 0.0 0.00 0.00 0.00 77 1017.0
20260508073400 59 150 9.0 0.0 0.00 0.00 0.00 77 1017.0
20260508071857 59 150 9.0 0.0 0.00 0.00 0.00 77 1017.0
20260508070400 59 150 9.0 0.0 0.00 0.00 0.00 77 1017.0
20260508064900 57 140 9.0 0.0 0.00 0.00 0.00 82 1016.0
20260508063400 57 140 9.0 0.0 0.00 0.00 0.00 82 1016.0
20260508061856 57 140 9.0 0.0 0.00 0.00 0.00 82 1016.0
20260508060400 57 140 9.0 0.0 0.00 0.00 0.00 82 1016.0
20260508054857 54 120 11.0 0.0 0.00 0.00 0.00 94 1016.0
20260508053359 54 120 11.0 0.0 0.00 0.00 0.00 94 1016.0
20260508051900 54 120 11.0 0.0 0.00 0.00 0.00 94 1016.0
20260508050400 54 120 11.0 0.0 0.00 0.00 0.00 94 1016.0
20260508044900 50 120 11.0 0.0 0.00 0.00 0.00 100 1016.0
20260508043400 50 120 11.0 0.0 0.00 0.00 0.00 100 1016.0
20260508041855 50 120 11.0 0.0 0.00 0.00 0.00 100 1016.0
20260508040401 50 120 11.0 0.0 0.00 0.00 0.00 100 1016.0
20260508034855 50 120 9.0 0.0 0.00 0.00 0.00 100 1016.0
20260508033400 50 120 9.0 0.0 0.00 0.00 0.00 100 1016.0
20260508031857 50 120 9.0 0.0 0.00 0.00 0.00 100 1016.0
20260508030401 50 120 9.0 0.0 0.00 0.00 0.00 100 1016.0
20260508024900 0 0.0 0.0 0.00 0.00 0.00
20260508023401 0 0.0 0.0 0.00 0.00 0.00
20260508021901 0 0.0 0.0 0.00 0.00 0.00
20260508020400 0 0.0 0.0 0.00 0.00 0.00
20260508014857 0 0.0 0.0 0.00 0.00 0.00
20260508013400 0 0.0 0.0 0.00 0.00 0.00
20260508011900 0 0.0 0.0 0.00 0.00 0.00
20260508010359 0 0.0 0.0 0.00 0.00 0.00
20260508004900 0 0.0 0.0 0.00 0.00 0.00
20260508003400 0 0.0 0.0 0.00 0.00 0.00
20260508001856 0 0.0 0.0 0.00 0.00 0.00
20260508000400 0 0.0 0.0 0.00 0.00 0.00
20260507234857 0 0.0 0.0 0.00 0.00 0.00
20260507233359 0 0.0 0.0 0.00 0.00 0.00
20260507231856 0 0.0 0.0 0.00 0.00 0.00
20260507230359 0 0.0 0.0 0.00 0.00 0.00
20260507224900 0 0.0 0.0 0.00 0.00 0.00
20260507223523 0 0.0 0.0 0.00 0.00 0.00
20260507221857 0 0.0 0.0 0.00 0.00 0.00
20260507220359 0 0.0 0.0 0.00 0.00 0.00
20260507214859 50 130 14.0 0.0 0.00 0.00 0.00 94 1017.0
20260507213401 50 130 14.0 0.0 0.00 0.00 0.00 94 1017.0
20260507211900 50 130 14.0 0.0 0.00 0.00 0.00 94 1017.0
20260507210400 50 130 14.0 0.0 0.00 0.00 0.00 94 1017.0
20260507204900 50 130 14.0 0.0 0.00 0.00 0.00 94 1017.0
20260507203400 52 130 14.0 0.0 0.00 0.00 0.00 94 1017.0
20260507201857 52 130 14.0 0.0 0.00 0.00 0.00 94 1017.0
20260507200400 52 130 14.0 0.0 0.00 0.00 0.00 94 1017.0
20260507194905 52 120 11.0 0.0 0.00 0.00 0.00 94 1017.0
20260507193359 52 120 11.0 0.0 0.00 0.00 0.00 94 1017.0
20260507191856 52 120 11.0 0.0 0.00 0.00 0.00 94 1017.0
20260507190401 52 120 11.0 0.0 0.00 0.00 0.00 94 1017.0
20260507184902 55 130 16.0 0.0 0.00 0.00 0.00 88 1016.0
20260507183359 55 130 16.0 0.0 0.00 0.00 0.00 88 1016.0
20260507181900 55 130 16.0 0.0 0.00 0.00 0.00 88 1016.0
20260507180359 55 130 16.0 0.0 0.00 0.00 0.00 88 1016.0
20260507174859 59 140 16.0 0.0 0.00 0.00 0.00 77 1015.0
20260507173400 59 140 16.0 0.0 0.00 0.00 0.00 77 1015.0
20260507171900 59 140 16.0 0.0 0.00 0.00 0.00 77 1015.0
20260507170359 59 140 16.0 0.0 0.00 0.00 0.00 77 1015.0
20260507164900 66 140 18.0 0.0 0.00 0.00 0.00 56 1015.0
20260507163400 66 140 18.0 0.0 0.00 0.00 0.00 56 1015.0
20260507161859 66 140 18.0 0.0 0.00 0.00 0.00 56 1015.0
20260507160359 0 0.0 0.0 0.00 0.00 0.00
20260507154900 70 140 18.0 0.0 0.00 0.00 0.00 50 1016.0
20260507153400 70 140 18.0 0.0 0.00 0.00 0.00 50 1016.0
20260507151900 70 140 18.0 0.0 0.00 0.00 0.00 50 1016.0
20260507150359 70 140 18.0 0.0 0.00 0.00 0.00 50 1016.0
20260507144859 70 140 18.0 0.0 0.00 0.00 0.00 50 1016.0
20260507143401 70 140 18.0 0.0 0.00 0.00 0.00 50 1016.0
20260507141900 70 140 18.0 0.0 0.00 0.00 0.00 50 1016.0
20260507140359 70 140 18.0 0.0 0.00 0.00 0.00 50 1016.0
20260507134900 72 150 16.0 0.0 0.00 0.00 0.00 50 1016.0
20260507133359 72 150 16.0 0.0 0.00 0.00 0.00 50 1016.0
20260507131856 72 150 16.0 0.0 0.00 0.00 0.00 50 1016.0
20260507130359 72 150 16.0 0.0 0.00 0.00 0.00 50 1016.0
20260507124856 72 140 16.0 0.0 0.00 0.00 0.00 50 1017.0
20260507123438 72 140 16.0 0.0 0.00 0.00 0.00 50 1017.0
20260507121859 72 140 16.0 0.0 0.00 0.00 0.00 50 1017.0
20260507120400 72 140 16.0 0.0 0.00 0.00 0.00 50 1017.0
20260507114900 72 140 16.0 0.0 0.00 0.00 0.00 50 1017.0
20260507113427 0 0.0 0.0 0.00 0.00 0.00
20260507111900 72 140 16.0 0.0 0.00 0.00 0.00 50 1017.0